This is the latest recevied weather packets stored in our database for station/object DJ2DS-13. If no packets are shown the sender has not sent any weather packets the latest 10 day(s).
| Time | Temp. | Humidity | Pressure | Rain* | Wind** | Luminosity | Snow |
|---|---|---|---|---|---|---|---|
| 1777032694 | 8.89° C | 82% | 1022.1 hPa | 0 mm | - | 369 W/m² | - |
| 1777032394 | 8.89° C | 83% | 1022.2 hPa | 0 mm | - | 285 W/m² | - |
| 1777032093 | 8.89° C | 83% | 1022 hPa | 0 mm | - | 315 W/m² | - |
| 1777031794 | 8.89° C | 81% | 1022.2 hPa | 0 mm | - | 389 W/m² | - |
| 1777031495 | 8.89° C | 81% | 1022.3 hPa | 0 mm | - | 317 W/m² | - |
| 1777031194 | 9.44° C | 81% | 1022.3 hPa | 0 mm | - | 399 W/m² | - |
| 1777030893 | 8.89° C | 81% | 1022.3 hPa | 0 mm | - | 318 W/m² | - |
| 1777030593 | 8.89° C | 81% | 1022.3 hPa | 0 mm | - | 331 W/m² | - |
| 1777030293 | 9.44° C | 81% | 1022.3 hPa | 0 mm | - | 361 W/m² | - |
| 1777029991 | 9.44° C | 81% | 1022.4 hPa | 0 mm | - | 373 W/m² | - |
| 1777029693 | 8.89° C | 81% | 1022.4 hPa | 0 mm | - | 304 W/m² | - |
| 1777029391 | 9.44° C | 81% | 1022.5 hPa | 0 mm | - | 452 W/m² | - |
| 1777029090 | 8.89° C | 81% | 1022.5 hPa | 0 mm | - | 288 W/m² | - |
| 1777028789 | 8.89° C | 81% | 1022.4 hPa | 0 mm | - | 440 W/m² | - |
| 1777028488 | 8.89° C | 80% | 1022.5 hPa | 0 mm | - | 378 W/m² | - |
| 1777028188 | 9.44° C | 81% | 1022.3 hPa | 0 mm | - | 297 W/m² | - |
| 1777027888 | 9.44° C | 81% | 1022.4 hPa | 0 mm | - | 489 W/m² | - |
| 1777027588 | 8.89° C | 81% | 1022.4 hPa | 0 mm | - | 394 W/m² | - |
| 1777027290 | 8.89° C | 82% | 1022.3 hPa | 0 mm | - | 322 W/m² | - |
| 1777026988 | 8.89° C | 81% | 1022.4 hPa | 0 mm | - | 341 W/m² | - |
| 1777026689 | 8.89° C | 82% | 1022.4 hPa | 0 mm | - | 327 W/m² | - |
| 1777026388 | 8.89° C | 82% | 1022.4 hPa | 0 mm | - | 294 W/m² | - |
| 1777026086 | 8.89° C | 82% | 1022.4 hPa | 0 mm | - | 346 W/m² | - |
| 1777025781 | 8.89° C | 82% | 1022.4 hPa | 0 mm | - | 315 W/m² | - |
| 1777025481 | 8.89° C | 82% | 1022.4 hPa | 0 mm | - | 338 W/m² | - |
* Rain latest hour (hover to see other rain measurements)
** Current wind speed in m/s (hover to see current wind gust speed)